Regional Weather Roundup
Issued by NWS

Home | Current Version | Previous Version | Text Only | Print | Product List | Glossary Off
Versions: 1 2 3 4 5 6 7 8 9 10 11 12 13 14 15 16 17 18 19 20 21 22 23 24 25 26 27 28 29 30 31 32 33 34 35 36 37 38 39 40 41 42 43 44 45 46 47 48 49 50

000
ASUS43 KFSD 041802
RWRSD

WEATHER ROUNDUP FOR SOUTH DAKOTA
NATIONAL WEATHER SERVICE SIOUX FALLS SD
1200 PM CST WED MAR 04 2015

NOTE: "FAIR" INDICATES FEW OR NO CLOUDS BELOW 12,000 FEET WITH NO
SIGNIFICANT WEATHER AND/OR OBSTRUCTIONS TO VISIBILITY.


SDZ001>005-009-010-012>017-041900-
NORTHWEST AND NORTH CENTRAL SOUTH DAKOTA

CITY           SKY/WX    TMP DP  RH WIND       PRES   REMARKS
BUFFALO          N/A      7  -6  55 NW18      30.15S WCI -12
FAITH            N/A      8  -7  50 NW20G30   30.25S WCI -11
MOBRIDGE       CLOUDY     8 -10  43 NW20G26   30.29R WCI -11
$$

SDZ012>016-024>037-041>051-057-063-072>074-041900-
SOUTHWEST AND SOUTH CENTRAL SOUTH DAKOTA

CITY           SKY/WX    TMP DP  RH WIND       PRES   REMARKS
RAPID CTY ARPT SUNNY     14   3  61 N25G33    30.21S WCI  -5
PIERRE         MOSUNNY    9  -4  55 NW20      30.32S WCI -10
CUSTER         SUNNY     10 -12  36 W15G25    30.00R WCI  -7
ELLSWORTH AFB  SUNNY     13  -1  54 N24G30    30.19F WCI  -7
PHILIP         PTSUNNY   14   2  58 NW17      30.31S WCI  -3
PINE RIDGE     SUNNY     11   0  61 S5        30.23S WCI   3
SPEARFISH      FAIR       9  -2  61 NW17G23   30.17S WCI -10
WINNER         FAIR      13  -1  54 NW17      30.31R WCI  -4
$$

SDZ004>011-016>023-039-040-041900-
NORTHEAST SOUTH DAKOTA

CITY           SKY/WX    TMP DP  RH WIND       PRES   REMARKS
ABERDEEN       PTSUNNY    3 -10  54 NW23      30.35R WCI -19
WATERTOWN      LGT SNOW   2  -5  72 NW20      30.25R WCI -19
SISSETON         N/A      3  -8  60 NW22      30.30R WCI -19
$$

SDZ017-020-022-023-036>040-048>070-041900-
SOUTHEAST SOUTH DAKOTA

CITY           SKY/WX    TMP DP  RH WIND       PRES   REMARKS
SIOUX FALLS    CLOUDY    12   2  64 NW18      30.28R WCI  -6
HURON          MOSUNNY    7  -5  57 NW22      30.35R WCI -14
MITCHELL       SUNNY     11  -4  51 NW22      30.36R WCI  -8
YANKTON        FAIR      19  -2  38 NW22G31   30.33R WCI   3
$$

ABBREVIATIONS USED IN REMARKS
   TC - TEMPERATURE IN CELSIUS
  WCI - WIND CHILL INDEX
   HX - HEAT INDEX
  VSB - VISIBILITY



USA.gov is the U.S. government's official web portal to all federal, state and local government web resources and services.